GFSFLT1_925_temp_159.txt.gz
Temp
27 27 27 27 25 25 25 24 24 23 22 22 23 24 24 25 25 25 25 25 25 25 26 25 25 25 25 25 25 25 25 24 24
27 27 26 26 25 25 25 25 24 23 23 23 23 24 24 24 24 24 25 25 25 25 25 25 25 25 25 25 25 25 25 24 24
26 27 25 25 24 25 25 25 24 24 23 23 24 24 24 24 24 24 25 25 24 24 25 25 25 25 25 25 25 25 25 24 24
25 25 25 24 24 25 25 25 25 24 23 23 23 23 24 24 24 24 25 24 24 24 25 25 25 25 25 25 25 25 24 24 24
23 25 24 23 23 23 24 25 25 24 24 23 24 24 23 24 24 24 24 24 24 24 24 24 24 24 25 24 25 25 24 24 24
22 22 21 21 20 22 23 24 24 24 24 23 23 23 23 23 24 24 24 24 25 24 24 24 24 24 24 24 24 24 25 25 24
21 21 21 21 20 21 21 23 24 24 24 23 23 23 23 24 24 24 24 24 24 24 24 23 22 22 22 23 23 23 24 24 24
21 22 21 20 21 21 22 22 24 24 24 23 24 24 23 24 25 24 24 25 25 25 25 24 22 22 23 24 22 23 23 22 23
23 22 22 21 21 21 23 23 24 25 24 24 24 23 23 23 22 23 25 23 23 24 24 23 22 21 21 22 22 23 23 22 20
21 21 21 21 20 20 21 24 25 25 25 24 23 23 23 23 22 21 21 21 21 20 20 19 20 21 21 19 20 21 22 22 21
21 21 20 20 19 20 21 22 23 23 23 23 23 20 20 20 19 19 19 19 19 19 19 19 18 19 18 18 19 19 19 19 19
21 20 18 19 21 21 21 19 20 21 21 20 19 17 18 18 19 19 19 18 18 18 18 17 17 18 18 17 18 19 19 18 18
20 19 18 18 20 22 22 20 19 19 18 16 16 16 16 18 18 18 17 17 17 16 16 16 16 16 15 15 15 15 16 16 16
19 19 19 20 20 19 19 19 18 17 16 15 16 17 17 17 17 17 16 15 15 14 14 14 12 11 11 11 11 12 12 13 13
19 18 19 19 19 18 18 18 19 16 15 15 16 16 16 15 16 15 14 14 12 12 11 9 9 10 10 10 10 10 11 12 12
19 18 19 19 18 18 18 17 19 16 15 16 16 15 15 15 14 13 11 10 10 10 10 9 10 9 9 10 10 10 11 12 12
19 18 18 18 18 17 17 18 18 19 16 16 16 15 14 13 13 10 10 11 10 10 9 10 11 10 9 9 9 10 11 11 12
18 18 18 18 18 17 17 17 17 17 16 16 15 15 14 13 11 10 10 11 11 10 10 10 10 9 9 9 9 10 11 12 13
18 17 17 17 17 17 16 16 15 16 17 17 16 14 13 12 11 11 11 12 11 11 11 11 10 10 10 10 10 11 12 12 14
18 17 17 17 17 17 16 16 14 15 16 17 16 15 13 12 12 12 12 12 12 12 12 12 11 10 10 10 10 11 11 12 12

GFSFLT1_925_temp_162.txt.gz
Temp
25 25 25 25 24 24 23 23 22 21 21 22 22 23 23 23 23 23 23 24 25 25 25 26 26 25 25 25 24 24 24 24 24
25 25 25 25 23 24 23 23 23 22 22 22 23 24 23 23 24 24 24 24 24 24 25 25 25 25 25 24 24 24 24 24 24
24 25 24 24 23 24 24 23 23 23 22 23 24 24 23 24 24 25 24 24 24 24 24 25 25 25 25 25 24 24 24 24 24
23 24 24 24 23 24 24 24 23 23 23 22 23 23 24 24 24 24 25 24 24 24 24 24 24 24 24 24 24 24 24 24 24
22 22 23 24 22 23 23 23 23 23 23 22 22 23 24 24 24 24 24 24 24 24 24 24 24 24 24 24 24 24 24 24 24
22 22 21 21 20 21 22 23 23 23 23 23 22 24 23 23 23 24 23 24 24 24 24 24 23 23 24 24 24 23 23 23 23
21 21 20 19 19 20 21 23 23 23 23 23 23 23 23 22 22 23 23 24 24 24 23 23 24 24 24 23 23 23 23 23 23
21 20 19 19 19 19 20 22 22 23 22 23 24 23 23 23 23 23 23 23 23 23 23 23 24 24 24 24 22 22 22 22 22
21 20 20 20 20 20 20 20 22 23 23 23 24 23 23 23 22 23 24 24 24 24 23 23 23 23 22 21 21 21 21 21 20
21 20 20 20 20 21 21 22 23 23 24 23 22 22 22 21 23 23 22 21 22 22 21 21 21 22 21 19 18 18 18 19 19
20 20 20 20 19 20 21 23 24 23 23 22 21 21 20 20 22 20 20 19 20 20 20 20 19 19 19 19 20 19 18 18 18
21 20 19 19 21 20 20 20 21 22 20 20 19 17 18 18 19 19 19 19 19 19 19 18 17 17 17 17 19 18 18 17 16
20 18 19 19 19 19 19 20 19 18 17 16 15 15 16 17 18 18 18 17 18 17 16 16 16 15 14 13 13 13 13 14 13
19 18 19 20 19 18 18 18 18 16 16 13 13 15 16 16 18 17 16 15 15 15 15 15 14 14 13 12 11 10 10 10 10
18 18 18 19 19 18 17 17 17 15 16 12 14 15 14 15 14 14 14 15 14 14 13 12 11 11 11 12 12 11 11 11 10
18 18 18 19 18 18 17 17 18 13 12 14 14 14 13 14 14 14 14 15 13 10 10 10 10 10 10 10 11 11 11 11 11
17 18 18 17 17 17 16 16 15 14 14 15 15 14 13 13 14 13 13 12 10 10 10 10 9 9 9 10 10 10 10 11 11
17 17 17 17 17 17 16 16 15 14 15 15 13 12 12 13 14 13 12 12 12 12 10 10 10 10 9 9 9 10 10 11 12
17 17 17 17 17 16 15 15 13 13 14 15 15 12 12 13 13 12 13 13 12 12 12 11 11 11 10 10 10 10 10 11 12
17 17 17 17 16 16 15 14 15 14 15 16 16 14 13 13 13 13 13 13 13 13 13 13 12 12 12 11 10 10 10 10 11

GFSFLT1_925_temp_165.txt.gz
Temp
30 30 30 29 28 27 26 25 24 23 22 22 22 21 21 23 22 22 22 22 23 23 23 24 25 25 25 25 24 24 24 23 23
30 29 30 29 28 27 26 25 24 24 23 22 22 22 21 22 23 21 22 23 23 23 23 24 25 25 24 24 24 24 24 23 23
30 29 29 29 28 27 26 25 25 24 24 23 23 23 22 22 22 23 22 23 24 23 24 25 25 25 25 25 24 24 22 22 23
30 29 29 28 27 27 26 25 25 24 24 22 22 22 23 23 22 22 21 22 23 24 24 24 24 24 25 25 24 24 23 23 23
28 28 29 28 27 26 26 25 25 25 24 23 23 23 22 22 23 22 22 22 22 24 24 24 24 24 24 24 24 24 23 22 23
28 27 27 27 27 26 26 26 25 25 24 24 24 22 23 23 23 22 22 22 22 22 22 23 24 23 23 24 23 23 23 22 22
28 26 26 26 26 26 25 25 25 24 24 24 23 22 25 23 23 22 22 22 22 22 22 23 22 22 22 22 22 23 23 22 22
27 26 26 26 26 25 24 24 24 24 24 23 23 23 23 22 22 22 24 24 22 23 22 22 22 22 21 21 21 21 22 21 21
28 27 26 25 25 25 24 24 24 23 23 23 23 23 23 22 22 23 24 26 24 23 21 21 21 20 20 20 20 20 19 19 20
27 27 26 25 25 25 25 24 24 24 23 23 22 23 22 22 21 21 21 22 21 21 20 20 20 19 19 18 18 18 18 18 18
27 26 25 25 25 24 24 24 24 24 23 22 22 22 22 21 21 20 20 20 19 19 19 20 20 19 19 18 16 16 16 17 17
27 26 25 25 24 24 21 22 22 22 22 22 21 20 20 20 19 18 17 17 18 18 18 18 18 18 17 17 15 15 15 15 13
25 25 24 23 22 21 21 20 20 19 18 18 18 18 18 17 17 18 17 17 16 16 17 16 15 14 13 13 13 13 13 12 12
24 24 23 21 22 22 20 18 17 15 15 13 13 14 13 14 18 18 17 17 15 14 14 13 13 13 13 13 12 12 13 12 10
23 23 22 21 20 18 18 18 18 17 15 15 15 17 13 11 14 15 14 15 14 13 13 13 13 13 14 14 13 12 11 11 11
23 23 22 22 18 18 18 18 18 17 15 17 19 15 13 11 14 13 12 13 13 14 13 14 13 11 11 11 11 11 10 10 11
23 23 23 21 18 17 16 16 15 14 13 14 19 14 11 11 11 12 13 14 14 15 14 14 13 11 12 11 11 10 10 11 11
23 22 21 21 20 17 16 15 14 13 12 13 12 12 11 12 13 14 13 13 13 13 12 12 12 12 12 11 10 10 10 10 11
22 21 20 20 18 16 15 14 14 13 13 13 12 13 13 14 14 14 14 14 12 12 13 13 12 12 11 11 10 10 10 11 11
20 21 21 20 18 16 15 15 14 13 13 13 14 15 14 14 15 15 15 15 16 15 14 14 13 13 13 12 11 11 11 11 11

GFSFLT1_925_temp_168.txt.gz
Temp
37 36 36 35 33 32 31 30 28 27 26 25 24 23 23 23 23 24 24 25 26 26 27 27 27 25 24 24 24 24 24 24 25
37 36 35 35 34 32 31 29 28 28 27 25 25 24 24 23 23 23 25 25 25 25 25 26 25 25 25 25 24 24 24 23 25
37 35 34 34 34 32 31 29 29 28 27 26 26 26 25 24 24 23 24 24 24 25 25 24 25 25 25 25 25 24 24 24 25
37 35 34 33 33 32 31 30 29 28 28 27 26 26 26 25 25 25 24 24 24 24 24 24 24 24 25 25 25 24 24 24 24
35 33 34 33 33 31 31 30 30 29 28 28 27 26 25 25 25 25 25 24 24 24 24 24 24 24 24 24 25 25 24 24 25
34 33 33 33 32 31 31 30 30 30 28 28 28 24 25 26 25 25 26 25 25 24 24 24 24 24 24 24 24 24 24 24 24
35 32 32 32 32 31 30 30 29 29 29 28 27 26 26 26 25 26 26 25 25 24 24 24 24 24 24 24 24 24 24 24 24
34 32 32 31 32 31 29 29 28 28 28 28 27 27 26 26 26 25 25 25 24 24 24 24 24 24 24 24 24 25 24 24 23
34 33 32 32 31 31 29 28 27 27 27 27 27 26 25 26 25 24 24 24 23 23 23 24 23 24 24 24 24 24 23 22 22
33 33 32 31 31 31 30 28 27 27 26 26 26 25 24 26 25 24 24 23 23 23 24 24 23 23 23 22 20 20 20 19 18
32 32 31 30 30 29 28 28 27 27 26 25 25 24 24 25 24 23 24 24 24 22 21 21 21 20 19 19 19 17 18 18 18
30 31 30 29 29 28 27 27 27 26 26 25 24 24 24 24 24 23 22 22 20 19 18 18 18 18 18 18 18 16 16 16 16
29 29 28 28 28 27 26 26 25 25 25 25 25 24 23 22 22 21 21 19 18 17 18 18 20 19 18 17 17 16 14 13 15
29 28 27 27 26 27 23 22 23 19 18 15 16 17 18 18 18 20 17 16 16 17 18 18 18 18 17 17 16 16 14 12 12
29 28 26 26 26 25 21 21 20 18 16 15 16 16 15 15 14 15 14 15 16 17 17 17 17 17 18 19 16 15 14 12 10
28 27 26 27 24 20 21 22 22 20 17 16 16 15 14 13 12 13 14 15 17 17 18 20 19 19 19 19 17 15 12 11 11
27 27 26 25 22 20 20 22 21 20 18 17 17 16 17 14 14 14 15 17 19 20 20 20 19 19 19 18 16 13 11 11 12
27 26 26 22 22 21 20 21 20 19 18 18 18 15 13 14 14 15 16 18 17 17 16 16 18 17 17 16 14 12 11 11 11
25 26 25 23 21 20 19 20 19 18 17 17 17 15 15 15 15 16 17 15 15 15 15 14 14 13 14 14 12 11 11 11 11
24 24 25 24 20 19 18 19 19 17 17 17 17 17 17 17 17 19 19 19 19 17 14 14 14 14 14 13 13 13 12 12 12

GFSFLT1_925_temp_171.txt.gz
Temp
40 39 39 38 36 35 33 32 31 29 27 25 24 24 24 24 24 25 25 26 27 27 28 28 28 25 26 25 25 25 25 25 26
40 39 39 38 37 35 34 32 31 30 28 26 25 25 24 24 24 24 26 26 25 26 27 28 27 27 26 26 25 25 25 25 25
39 39 38 38 37 36 34 32 31 30 29 27 26 26 25 25 24 24 25 26 26 26 26 26 26 26 26 26 26 26 25 24 25
39 39 38 37 37 35 34 33 32 30 30 28 27 27 26 26 25 25 24 25 25 25 26 26 25 25 26 25 26 26 24 24 25
39 37 38 37 36 35 34 33 32 31 30 30 28 28 27 26 26 26 26 25 25 25 25 25 25 25 25 25 25 26 25 25 26
38 37 36 36 36 35 34 33 32 32 31 30 30 29 27 27 27 27 27 26 26 26 25 25 25 25 24 24 25 25 25 25 25
38 37 36 36 35 34 34 33 32 32 31 31 30 29 28 27 27 27 27 27 26 26 25 25 25 25 25 25 25 25 25 25 24
37 36 35 35 35 34 33 32 31 31 31 31 30 29 27 27 27 27 27 27 26 25 25 25 25 25 25 25 25 26 26 25 25
37 37 35 35 35 34 32 32 30 30 30 30 30 29 28 28 27 26 26 26 26 25 25 25 25 25 25 25 25 23 25 25 25
35 35 36 35 34 34 33 31 30 29 29 29 29 28 28 28 27 26 26 26 25 25 25 25 24 24 24 24 23 22 23 23 21
33 34 34 34 34 33 32 31 30 29 29 28 28 27 27 27 26 26 25 25 25 25 25 24 24 23 22 23 21 21 20 20 20
32 33 33 33 32 31 31 30 30 29 28 27 27 27 26 26 26 26 25 25 25 24 23 22 21 21 21 20 21 20 18 18 17
32 32 31 31 32 30 29 29 29 28 28 27 26 26 26 25 25 25 24 23 22 20 21 21 21 21 20 20 19 19 17 16 16
31 31 31 31 31 30 29 28 28 28 27 23 19 20 21 22 22 20 19 18 19 19 20 20 21 20 20 19 19 18 17 15 14
31 31 30 30 30 29 26 27 27 25 22 18 18 18 19 19 17 18 17 17 17 18 18 19 20 20 20 22 20 18 16 14 13
30 30 30 30 30 27 25 24 24 23 20 18 18 17 16 16 16 16 16 16 17 18 19 21 22 22 23 22 21 20 17 14 13
29 30 29 29 27 25 25 25 23 23 19 18 18 17 17 16 16 16 15 16 18 19 21 22 22 21 22 21 20 18 15 13 12
28 29 28 28 26 24 25 24 23 21 20 19 19 18 17 17 16 17 16 16 18 19 19 19 20 20 20 19 18 15 11 11 11
27 27 28 26 26 24 24 24 22 22 21 21 20 19 19 18 18 17 16 15 16 17 17 17 17 16 16 17 15 13 12 12 12
25 26 26 27 25 24 22 23 22 22 21 21 20 21 20 19 19 18 17 17 16 15 15 16 15 16 15 16 16 15 14 14 14

GFSFLT1_925_temp_174.txt.gz
Temp
40 40 39 38 37 34 33 32 30 28 25 24 23 23 23 24 24 24 24 26 26 27 27 27 27 26 26 25 25 25 25 25 25
40 40 40 38 37 35 33 32 30 29 26 24 24 24 23 23 24 24 25 26 27 26 27 27 27 26 26 25 25 25 25 24 25
40 40 39 39 38 36 34 33 31 30 26 25 24 25 24 23 24 24 25 26 26 26 26 27 27 26 25 25 25 25 25 24 24
40 39 38 38 37 36 34 33 31 30 27 26 25 25 25 24 24 24 24 24 25 26 26 26 26 26 26 26 26 26 25 24 24
40 38 38 38 37 36 35 33 32 31 30 27 26 26 26 25 25 24 24 24 25 25 25 25 26 26 26 25 25 25 25 25 24
38 38 37 37 37 34 34 33 33 31 30 29 27 27 26 26 26 25 25 25 25 25 25 25 25 25 25 24 24 24 25 24 24
38 37 37 36 36 35 34 33 32 32 31 30 29 28 27 27 26 26 26 26 25 25 25 25 24 25 25 24 24 24 24 25 24
38 37 37 36 35 33 32 32 31 32 31 30 30 29 28 27 27 27 26 26 27 26 26 25 25 24 24 25 25 24 25 25 25
37 36 36 36 35 34 32 32 31 31 31 30 30 29 28 27 27 27 27 27 26 26 25 25 25 25 25 24 25 25 25 25 25
34 35 35 35 35 34 33 32 31 30 31 30 30 29 29 27 27 26 26 26 26 26 25 25 25 24 24 24 24 24 24 22 23
33 33 34 35 34 34 33 32 32 31 30 30 29 29 28 27 27 26 26 26 26 26 25 25 24 24 24 24 24 23 20 21 21
33 33 33 33 34 33 32 31 31 30 29 29 29 28 28 27 27 26 26 26 25 25 25 24 24 23 23 21 21 21 20 20 20
32 33 33 32 33 33 32 31 31 29 29 28 28 27 27 27 26 26 25 25 25 25 24 23 23 21 21 21 20 20 20 18 17
31 32 32 31 32 31 30 29 30 29 28 28 26 26 26 26 25 25 23 23 21 21 20 20 21 21 21 20 20 19 19 18 16
30 31 31 31 31 30 29 29 29 28 24 20 21 20 20 21 21 20 19 19 19 19 20 20 20 20 20 21 20 20 19 16 15
30 29 30 30 31 28 27 28 28 24 19 19 19 19 18 19 19 18 18 18 18 18 19 20 20 20 22 23 21 20 18 16 14
28 28 28 30 30 27 26 25 25 23 19 19 19 18 17 17 17 17 17 17 18 18 19 20 22 22 21 21 19 18 17 14 13
27 28 27 29 28 27 26 25 24 20 19 19 19 18 17 17 16 16 17 17 18 17 17 18 19 19 19 18 17 16 15 13 13
26 26 26 27 27 26 25 24 22 21 19 19 19 19 19 19 18 17 15 14 14 16 17 16 17 18 18 17 17 16 15 14 13
26 26 25 26 26 25 25 24 22 21 20 20 20 20 20 19 19 18 17 16 16 14 14 16 17 17 18 18 18 17 16 15 14